{"data":{"norad_id":58010,"epoch":"2026-05-25T04:00:03.998880Z","epoch_age_seconds":60335,"freshness":"FRESH","line1":"1 58010U 23153V   26145.16671295  .00003651  00000+0  14211-3 0  9999","line2":"2 58010  43.0021 355.0699 0001486 268.1684  80.7771 15.27585065  5859","mean_motion":15.27585065,"eccentricity":0.0001486,"inclination_deg":43.0021,"raan_deg":355.0699,"arg_perigee_deg":268.1684,"mean_anomaly_deg":80.7771,"bstar":0.00014211,"rev_number":585,"period_min":94.266436154245,"perigee_km":482.01435964929,"apogee_km":484.05349964958,"semimajor_km":6861.1709296494,"source":"CELESTRAK","updated_at":"2026-05-25T13:38:18.493214Z"}}